Weather History for KMWO - February, 2013

Change the Weather History Date:

Monday, February 4, 2013

  Actual Average (KDAY) Record (KDAY)
Temperature  
Mean Temperature 22 °F 29 °F  
Max Temperature 33 °F 36 °F 65 °F (1962)
Min Temperature 12 °F 21 °F -9 °F (1912)
Degree Days  
Heating Degree Days 42 36  
Month to date heating degree days 146  
Since 1 July heating degree days 3469  
Cooling Degree Days 0 0  
Month to date cooling degree days 0  
Year to date cooling degree days 0  
Moisture  
Dew Point 25 °F    
Average Humidity 93    
Maximum Humidity 100    
Minimum Humidity 76    
Precipitation  
Precipitation 0.00 in 0.08 in 1.23 in (1990)
Month to date precipitation 0.33  
Year to date precipitation 3.04  
Snow  
Snow 0.00 in 0.20 in 6.00 in (1948)
Month to date snowfall 0.9  
Since 1 July snowfall 14.3  
Snow Depth -    
Sea Level Pressure  
Sea Level Pressure 29.95 in    
Wind  
Wind Speed 4 mph (SSW)    
Max Wind Speed 14 mph    
Max Gust Speed 18 mph    
Visibility 7 miles    
Events Snow    
T = Trace of Precipitation, MM = Missing Value Source: NWS Daily Summary

Daily Weather History Graph

Daily Weather History Graph

Search for Another Location

Airport or City:

Trip Planner

Search our weather history database for the weather conditions in past years. The results will help you decide how hot, cold, wet, or windy it might be!

Date:

Astronomy

Feb. 04, 2013 Rise Set
Actual Time 7:41 AM EST 6:01 PM EST
Civil Twilight 7:13 AM EST 6:29 PM EST
Nautical Twilight 6:41 AM EST 7:01 PM EST
Astronomical Twilight 6:10 AM EST 7:33 PM EST
Moon 2:16 AM EST (2/4) 12:24 PM EST (2/4)
Length of Visible Light 11h 16m
Length of Day
10h 19m
Last Quarter, 37% of the Moon is Illuminated
Feb 4
Last Quarter
Feb 10
New
Feb 17
First Quarter
Feb 25
Full
Mar 4
Last Quarter

Hourly Weather History & Observations

Time (EST) Temp. Windchill Dew Point Humidity Pressure Visibility Wind Dir Wind Speed Gust Speed Precip Events Conditions
12:15 AM 14.7 °F 9.0 °F 14.5 °F 99% 30.13 in 5.0 mi WSW 3.5 mph - N/A   Clear
12:35 AM 12.7 °F - 12.6 °F 99% 30.13 in 5.0 mi Calm Calm - N/A   Clear
12:55 AM 12.7 °F - 12.6 °F 99% 30.13 in 4.0 mi Calm Calm - N/A   Clear
1:15 AM 12.7 °F - 12.6 °F 99% 30.12 in 5.0 mi Calm Calm - N/A   Mostly Cloudy
1:35 AM 12.9 °F - 12.7 °F 99% 30.12 in 5.0 mi Calm Calm - N/A   Scattered Clouds
1:55 AM 12.9 °F 6.9 °F 12.7 °F 99% 30.13 in 5.0 mi WSW 3.5 mph - N/A   Clear
2:15 AM 12.7 °F - 12.6 °F 99% 30.12 in 5.0 mi Calm Calm - N/A   Clear
2:35 AM 12.7 °F - 12.2 °F 98% 30.12 in 5.0 mi Calm Calm - N/A   Clear
2:55 AM 12.7 °F - 12.2 °F 98% 30.11 in 7.0 mi Calm Calm - N/A   Mostly Cloudy
3:15 AM 12.7 °F - 12.6 °F 99% 30.11 in 7.0 mi Calm Calm - N/A   Mostly Cloudy
3:35 AM 12.7 °F - 12.6 °F 99% 30.11 in 7.0 mi Calm Calm - N/A   Mostly Cloudy
3:55 AM 15.6 °F 10.0 °F 15.6 °F 100% 30.11 in 7.0 mi West 3.5 mph - N/A   Overcast
4:15 AM 17.6 °F - 17.6 °F 100% 30.10 in 7.0 mi Calm Calm - N/A   Overcast
5:55 AM 17.6 °F - 17.6 °F 100% 30.08 in 7.0 mi Calm Calm - N/A   Overcast
6:15 AM 18.5 °F 13.3 °F 18.5 °F 100% 30.08 in 7.0 mi SW 3.5 mph - N/A   Overcast
6:35 AM 20.3 °F - 20.3 °F 100% 30.06 in 7.0 mi Calm Calm - N/A   Overcast
6:55 AM 20.3 °F 12.5 °F 20.3 °F 100% 30.05 in 7.0 mi South 5.8 mph - N/A   Overcast
7:15 AM 20.7 °F 13.0 °F 20.7 °F 100% 30.04 in 7.0 mi South 5.8 mph - N/A   Overcast
7:55 AM 22.8 °F 16.7 °F 22.1 °F 97% 30.02 in 10.0 mi South 4.6 mph - N/A   Overcast
8:15 AM 24.8 °F 16.1 °F 23.0 °F 93% 30.00 in 10.0 mi South 8.1 mph - N/A   Overcast
8:35 AM 25.3 °F 16.0 °F 22.1 °F 87% 30.00 in 10.0 mi South 9.2 mph - N/A   Overcast
8:55 AM 26.2 °F 18.6 °F 22.6 °F 86% 30.00 in 10.0 mi South 6.9 mph - N/A   Overcast
9:15 AM 27.9 °F 20.6 °F 23.5 °F 84% 30.00 in 10.0 mi South 6.9 mph - N/A   Overcast
9:35 AM 27.9 °F 19.8 °F 22.8 °F 81% 29.99 in 10.0 mi South 8.1 mph - N/A   Overcast
9:55 AM 27.9 °F 18.4 °F 22.1 °F 79% 29.98 in 10.0 mi South 10.4 mph - N/A   Overcast
10:15 AM 27.9 °F 18.4 °F 21.2 °F 76% 29.98 in 10.0 mi South 10.4 mph - N/A   Overcast
10:35 AM 27.9 °F 17.8 °F 21.2 °F 76% 29.96 in 10.0 mi South 11.5 mph - N/A   Overcast
10:55 AM 27.9 °F 17.8 °F 21.2 °F 76% 29.95 in 10.0 mi South 11.5 mph 18.4 mph N/A   Overcast
11:15 AM 27.9 °F 18.4 °F 21.6 °F 77% 29.95 in 10.0 mi South 10.4 mph - N/A   Overcast
11:35 AM 29.1 °F 20.6 °F 23.0 °F 78% 29.94 in 10.0 mi SSW 9.2 mph - N/A   Overcast
11:55 AM 30.2 °F 19.8 °F 23.4 °F 76% 29.94 in 10.0 mi South 13.8 mph - N/A   Overcast
12:15 PM 30.2 °F 21.3 °F 23.9 °F 77% 29.93 in 10.0 mi SSW 10.4 mph - N/A   Overcast
12:35 PM 30.2 °F 21.3 °F 24.3 °F 79% 29.91 in 10.0 mi South 10.4 mph 17.3 mph N/A   Overcast
12:55 PM 30.2 °F 21.3 °F 23.9 °F 77% 29.90 in 10.0 mi South 10.4 mph 16.1 mph N/A   Overcast
1:15 PM 32.5 °F 26.2 °F 26.6 °F 79% 29.88 in 10.0 mi SSE 6.9 mph - N/A   Overcast
1:35 PM 32.5 °F 27.1 °F 26.2 °F 78% 29.87 in 10.0 mi SSW 5.8 mph - N/A   Overcast
1:55 PM 32.5 °F 28.1 °F 25.9 °F 76% 29.88 in 10.0 mi SSW 4.6 mph - N/A   Overcast
2:15 PM 32.5 °F 26.2 °F 25.9 °F 76% 29.88 in 10.0 mi SSW 6.9 mph - N/A   Overcast
2:35 PM 32.5 °F 28.1 °F 26.4 °F 78% 29.87 in 10.0 mi SSW 4.6 mph - N/A   Overcast
2:55 PM 32.5 °F 28.1 °F 26.4 °F 78% 29.87 in 10.0 mi SSW 4.6 mph - N/A Snow Light Snow
3:15 PM 32.5 °F 26.2 °F 30.2 °F 91% 29.87 in 1.8 mi SSW 6.9 mph - N/A Snow Light Snow
3:35 PM 32.0 °F 24.2 °F 31.3 °F 97% 29.86 in 1.2 mi South 9.2 mph - N/A Snow Light Snow
3:55 PM 30.2 °F 23.4 °F 30.2 °F 100% 29.85 in 1.0 mi South 6.9 mph - N/A Snow Light Snow
4:15 PM 32.5 °F 29.3 °F 32.5 °F 100% 29.84 in 1.0 mi South 3.5 mph - N/A Snow Light Snow
4:35 PM 32.5 °F 26.2 °F 32.5 °F 100% 29.83 in 4.0 mi South 6.9 mph - N/A   Overcast
4:55 PM 32.5 °F 28.1 °F 32.5 °F 100% 29.84 in 5.0 mi SSW 4.6 mph - N/A   Overcast
5:15 PM 32.5 °F 29.3 °F 32.5 °F 100% 29.84 in 5.0 mi WSW 3.5 mph - N/A   Overcast
5:35 PM 32.5 °F 29.3 °F 32.5 °F 100% 29.85 in 7.0 mi WSW 3.5 mph - N/A   Overcast
5:55 PM 32.5 °F 29.3 °F 32.5 °F 100% 29.85 in 7.0 mi SW 3.5 mph - N/A   Overcast
6:15 PM 32.5 °F 29.3 °F 32.5 °F 100% 29.85 in 10.0 mi WSW 3.5 mph - N/A   Overcast
6:35 PM 32.5 °F - 32.5 °F 100% 29.85 in 7.0 mi Calm Calm - N/A   Overcast
6:55 PM 32.5 °F - 32.5 °F 100% 29.86 in 7.0 mi Calm Calm - N/A   Overcast
7:15 PM 32.5 °F - 32.5 °F 100% 29.86 in 7.0 mi Calm Calm - N/A   Overcast
7:35 PM 32.7 °F - 32.7 °F 100% 29.85 in 7.0 mi Calm Calm - N/A   Overcast
7:55 PM 33.8 °F 29.6 °F 33.8 °F 100% 29.85 in 7.0 mi SSW 4.6 mph - N/A   Overcast
8:15 PM 33.8 °F 30.8 °F 33.8 °F 100% 29.86 in 7.0 mi WSW 3.5 mph - N/A   Overcast
8:35 PM 32.7 °F 29.6 °F 32.7 °F 100% 29.87 in 5.0 mi West 3.5 mph - N/A   Overcast
8:55 PM 32.5 °F - 32.5 °F 100% 29.87 in 7.0 mi Calm Calm - N/A   Overcast
9:15 PM 32.5 °F - 32.5 °F 100% 29.88 in 7.0 mi Calm Calm - N/A   Overcast
9:35 PM 32.5 °F - 32.5 °F 100% 29.89 in 5.0 mi Calm Calm - N/A   Overcast
9:55 PM 32.5 °F - 32.5 °F 100% 29.89 in 5.0 mi Calm Calm - N/A   Overcast
10:15 PM 32.5 °F 29.3 °F 32.5 °F 100% 29.89 in 5.0 mi South 3.5 mph - N/A   Overcast
10:35 PM 33.3 °F 30.2 °F 33.3 °F 100% 29.89 in 7.0 mi South 3.5 mph - N/A   Overcast
10:55 PM 32.5 °F - 32.5 °F 100% 29.88 in 4.0 mi Calm Calm - N/A   Overcast
11:15 PM 32.5 °F - 32.5 °F 100% 29.88 in 4.0 mi Calm Calm - N/A   Overcast
11:35 PM 32.5 °F - 32.5 °F 100% 29.88 in 4.0 mi Calm Calm - N/A   Overcast
11:55 PM 32.5 °F 29.3 °F 32.5 °F 100% 29.87 in 4.0 mi South 3.5 mph - N/A   Overcast